CZ-6A DEB

Satellite information

Favourite Embed

Satellite Type and Status

DEBRISIN ORBIT

Key statistics

Satellite CZ-6A DEB at a glance.

Uptime

1030

Days in orbit

Revolutions

≈ 15.1

Per day

Orbit

SSO

Sun Synchronous Orbit

Inclination

98.5

Latest

Satellite identification and parameters

Extended collection of information and parameters for CZ-6A DEB.

Object identification

Identified? True

Debris? True

Object name: CZ-6A DEB

International designator: 2022-151AER

Object number (NORAD): 56617

Object ID (CCSDS): 56617

Country: PEOPLES REPUBLIC OF CHINA (PRC)

Current information (Y/N): Y

RCS size: SMALL

Orbital parameters

Period: 95.59 minutes

Inclination: 98.5263 deg

SMA: 6925.254 km

Apoapsis: 597.266 km

Periapsis: 496.971 km

RAAN: 318.8695 deg

Eccentricy: 0.00724131

Argument of periapsis: 311.769 deg

Mean anomaly: 47.736 deg

Mean motion: 15.06431004 rev/day

Mean motion (dot): 0.00059207 rev/day2

B* drag term: 0.0037610794 1/REarth

Two-line elements (TLE)

Creation date: Sept. 2, 2025, 10:20 a.m.

Reference frame: TEME

Reference center: EARTH

Epoch: Sept. 1, 2025, 11:43 p.m. UTC

TLE line 0: 0 CZ-6A DEB

TLE line 1: 1 56617U 22151AER 25244.98855208 .00059207 00000-0 37611-2 0 9991

TLE line 2: 2 56617 98.5263 318.8695 0072413 311.7690 47.7360 15.06431004126958

Live tracking on map

Real-time ground track for satellite CZ-6A DEB.

In-orbit conjunctions

A list of the most updated potential collisions computed for object CZ-6A DEB.

Target Orbit TCA Probability of collision Miss distance Type
SL-14 R/B LEO 2025-06-01 06:45:43 0.001838084 28.0 (m) ROCKET BODY
COSMOS 2251 DEB LEO 2024-06-23 14:42:42 0.0001829933 115.0 (m) DEBRIS

Associated space launch

Chinese satellite reported for atmospheric/ocean/environmental/spatial parameter research purposes, details TBD.

CZ-6A DEB was lifted into orbit during the mission ‘Long March 6A | Yunhai 3’, on board a Long March 6A space rocket.

The launch took place on Nov. 11, 2022, 10:52 p.m. from Launch Complex 9A.

For more information about the launch, click the button.

Launch to space Long March 6A | Yunhai 3
Long March 6A | Yunhai 3

Agency: N/A

Status: Launch Successful

Launch date: Nov. 11, 2022, 10:52 p.m. UTC

Rocket: Long March 6A

Launch pad: Launch Complex 9A

Location: Taiyuan Satellite Launch Center, People's Republic of China

...

Latest news about this satellite

There are no fresh news available about this satellite. Check back as we update our databases every day.


Newsletter sign-up

Weekly statistics, charts and insights to help you stay on top of the space industry.